Vorticity
7 8 8 6 6 8 9 6 5 8 8 7 7 7 8 7 6 7 8 10 11 4 2 9 11 12 12 3 -1 2 3 6 9 8 8 10 11 11 10 10 10 11 11 9 9 9 9 9 8 6 5 4 3 2 5 10 9 7 7 5 3 3 2 2 2 2 2 3 4 4 4 4 4 3
9 11 10 7 5 7 9 4 2 8 10 7 4 5 9 12 11 9 5 4 8 4 1 9 11 9 8 3 -1 1 3 7 8 8 9 10 11 10 10 10 10 11 10 10 9 9 8 8 7 5 5 5 4 3 3 8 10 9 7 7 5 4 3 2 2 2 2 2 3 3 3 2 1 1
11 12 11 10 7 6 7 6 6 9 9 5 4 8 11 11 11 7 1 4 11 7 4 9 12 9 7 4 4 4 4 8 9 8 9 11 11 11 11 12 12 11 10 9 9 9 9 8 7 5 5 6 5 4 3 6 10 10 8 7 6 6 5 4 2 2 2 2 2 2 2 2 1 1
6 6 8 9 8 5 5 9 11 9 7 6 7 9 8 8 10 7 4 7 10 6 5 9 10 10 10 5 3 5 7 9 8 8 10 11 10 10 11 13 13 11 10 9 9 10 9 8 7 6 6 7 6 4 3 4 7 9 9 7 6 6 6 6 5 5 4 4 3 3 3 3 2 3
11 8 7 9 9 7 7 10 10 7 7 8 8 7 8 10 8 5 7 7 6 7 8 8 10 13 12 3 1 9 11 8 7 9 11 11 10 10 10 12 13 12 10 9 9 10 10 9 7 7 7 7 7 5 3 3 5 8 10 9 8 7 5 5 5 6 6 6 6 5 6 6 6 6
14 8 5 8 10 9 10 10 8 6 7 8 7 6 7 7 2 4 10 8 7 11 9 7 9 9 8 5 4 7 6 5 8 11 11 10 10 10 10 11 12 12 10 9 9 10 10 10 8 7 7 7 7 5 2 3 4 7 9 10 11 10 8 6 5 5 5 4 5 5 5 6 6 5
4 5 7 10 11 10 10 10 9 8 7 6 6 8 11 11 7 8 11 7 8 10 6 6 9 6 8 8 4 5 6 7 10 12 10 10 10 10 9 10 12 14 11 9 9 10 11 10 9 8 7 6 6 5 3 3 4 5 7 9 10 11 10 10 8 7 7 6 5 6 5 5 5 5
6 10 12 13 12 10 8 8 9 7 7 7 8 9 10 11 11 10 9 9 9 6 4 8 8 9 11 6 6 15 10 3 8 13 10 9 10 10 8 8 12 14 12 10 9 10 11 11 10 8 8 8 7 6 4 3 3 4 6 8 9 10 11 11 10 9 8 7 7 7 7 7 7 7
9 9 7 9 12 12 10 10 9 7 7 8 8 9 8 7 10 10 10 12 10 6 7 10 9 14 15 5 8 17 4 -2 8 12 8 9 10 10 9 11 13 12 11 9 8 9 10 11 11 10 9 9 8 6 4 2 4 5 6 7 8 9 10 9 8 7 7 7 7 8 7 7 7 7
6 8 6 10 12 11 10 10 9 8 9 9 10 12 10 7 7 9 10 10 9 7 9 9 11 16 13 5 13 19 8 3 7 5 7 12 11 11 11 13 15 13 11 8 7 8 9 10 10 10 9 9 7 5 4 3 4 5 6 7 7 8 9 7 7 7 8 8 7 7 7 6 6 6
7 6 7 10 10 10 10 10 11 10 10 11 11 10 7 3 4 8 10 8 8 10 9 10 16 19 12 8 14 13 -0 -5 -1 2 9 13 10 11 11 12 15 14 12 11 8 8 8 8 8 8 8 8 6 4 4 4 5 6 6 7 7 8 7 6 8 8 7 6 6 5 5 5 4 5
8 5 7 9 11 12 10 9 11 11 11 11 9 7 7 7 5 5 7 9 10 10 9 12 18 20 13 6 5 1 -2 2 4 3 7 11 12 10 8 10 13 12 12 13 10 8 8 7 7 7 7 7 5 5 5 5 5 6 6 7 7 6 6 7 7 6 5 5 5 4 5 5 5 5
7 6 6 9 12 12 8 7 10 11 11 9 8 8 9 7 6 6 7 10 10 9 10 12 12 11 8 4 1 2 8 12 6 1 6 11 11 10 9 10 11 9 9 10 8 7 7 5 5 6 6 5 5 5 6 6 6 7 6 6 6 6 7 6 5 5 5 4 5 6 6 5 4 4
10 8 4 7 11 11 8 7 9 11 9 8 8 9 9 7 7 8 9 9 8 8 10 12 11 8 6 6 5 8 12 11 4 4 9 9 8 9 10 9 8 6 6 6 6 6 6 7 7 7 7 6 6 6 6 6 6 5 5 5 6 7 6 5 4 4 4 5 6 6 5 4 5 7
10 7 4 6 7 8 8 6 8 10 7 6 8 8 8 10 10 10 10 8 8 8 9 9 9 8 6 7 8 8 10 8 7 9 10 7 5 7 10 11 10 8 6 6 7 7 7 8 9 8 7 7 6 6 5 5 5 5 6 6 6 5 4 3 5 5 4 4 5 6 7 7 9 12
8 6 3 5 5 5 6 5 7 8 6 7 11 9 8 10 10 10 9 8 8 10 9 7 6 6 7 9 10 9 8 7 8 10 9 6 5 8 12 11 9 8 8 7 8 8 8 9 8 7 8 7 7 7 6 7 7 6 5 4 3 4 5 6 7 5 4 5 7 9 9 8 10 9
12 9 4 6 6 6 10 13 12 10 7 8 10 10 10 11 10 9 8 8 9 9 7 6 7 8 9 9 10 8 7 8 8 7 7 8 8 9 6 3 4 6 6 4 5 6 8 8 7 8 10 10 9 9 8 7 6 4 3 4 8 11 11 8 7 5 5 7 8 8 8 8 8 4
10 5 6 9 6 4 9 13 14 9 5 5 7 8 9 9 9 9 10 10 10 9 9 8 8 10 10 9 11 10 8 9 8 7 7 6 4 3 2 3 7 7 5 6 7 9 11 8 6 10 12 10 9 9 8 6 4 3 7 12 14 11 8 6 5 3 3 7 9 10 10 8 4 2
8 1 5 7 6 7 8 7 8 8 7 8 9 10 11 11 10 9 9 9 7 7 9 9 7 9 9 10 12 11 9 9 7 5 5 3 3 6 7 8 8 7 7 9 10 12 10 4 4 9 8 6 5 5 4 4 5 7 10 11 10 7 6 4 -0 -1 3 9 12 11 8 6 5 5
1 3 6 1 -0 6 11 10 7 6 7 7 9 12 14 13 12 10 8 7 7 7 8 7 7 9 12 12 10 7 7 8 8 6 6 8 10 12 10 8 9 10 11 12 13 11 3 -1 7 12 8 5 2 -1 0 3 6 9 8 7 9 8 2 -3 -4 -1 7 12 10 7 6 6 5 4
3 5 8 4 1 2 5 6 5 8 12 9 7 11 13 12 11 12 10 7 7 9 8 6 5 8 10 8 6 6 7 8 8 7 8 10 11 10 7 5 7 9 9 9 12 9 2 3 10 13 11 9 2 -6 -4 2 6 11 10 7 8 2 -4 -1 1 -1 3 11 12 8 7 6 4 4
12 9 8 8 7 4 2 -0 -2 6 17 16 8 7 13 14 10 7 9 10 9 9 7 5 6 10 11 9 8 9 8 7 7 7 8 10 9 6 4 5 7 9 8 7 8 9 7 4 2 2 6 9 3 -6 -6 2 9 13 10 6 5 2 -1 3 1 -7 -1 11 13 8 8 10 8 3
14 13 12 10 9 8 7 1 -5 -4 5 11 8 4 6 10 8 5 7 8 5 4 5 6 8 8 6 5 7 9 9 9 11 12 12 10 7 6 6 7 10 10 8 6 5 6 6 -1 -6 -4 1 8 6 -6 -6 7 14 15 13 8 3 -0 -2 -0 -1 -4 0 8 11 12 12 9 1 -5
21 17 12 7 7 10 11 9 5 1 -0 3 7 5 2 5 9 10 9 5 2 4 5 3 3 2 2 5 7 8 8 9 9 10 10 5 4 6 6 5 8 11 11 8 5 6 6 2 -0 -1 1 10 10 -6 -9 6 12 10 9 4 -2 -0 3 2 -2 -4 -1 9 18 16 5 -6 -6 1
21 24 20 12 7 8 9 9 10 10 6 3 4 6 6 6 6 6 4 1 3 7 8 6 4 3 5 8 8 7 7 8 8 8 8 6 5 6 5 3 2 4 6 7 6 7 6 3 4 5 5 13 12 -5 -10 1 4 4 7 4 2 4 2 -5 -5 1 10 16 14 1 -10 -6 7 14
8 14 21 23 19 15 8 4 6 9 8 5 3 2 3 4 6 7 5 3 5 4 2 7 12 12 9 7 6 5 6 7 8 8 7 7 7 6 7 7 3 0 2 4 6 9 7 3 5 7 5 6 4 -2 -1 6 8 9 7 0 -2 0 -1 -0 8 15 12 4 -1 -3 1 10 16 13
4 5 8 14 21 24 19 13 11 11 12 14 14 12 6 2 5 7 6 5 2 -9 -11 2 15 15 12 10 8 8 8 6 7 8 8 8 9 9 9 9 7 6 7 7 6 7 6 4 5 7 5 5 5 2 1 5 7 4 -4 -8 -1 9 11 8 6 5 4 6 12 15 13 12 11 9
6 6 3 2 7 14 18 19 16 14 12 9 11 17 19 13 8 6 6 6 1 -10 -6 12 21 15 11 10 6 4 5 5 5 6 7 7 9 9 8 8 8 8 8 9 8 8 9 9 9 8 5 4 3 -2 -5 1 5 1 -5 -1 7 9 6 5 6 11 17 20 17 9 4 5 8 10
5 6 6 5 3 3 6 10 13 14 10 2 2 15 25 26 24 19 14 12 9 5 9 14 12 8 11 15 15 12 10 8 6 6 6 6 7 8 9 10 11 10 10 11 9 9 10 9 6 4 4 4 5 3 2 4 4 -2 -1 6 10 9 12 18 19 16 13 9 4 2 5 10 11 12
6 6 5 6 7 5 4 5 8 11 8 3 4 9 10 14 22 27 27 22 16 14 17 14 8 6 7 10 14 16 13 10 7 5 4 3 4 5 6 6 7 8 10 11 11 12 12 9 7 9 11 9 6 3 1 1 -0 1 8 16 18 16 16 13 6 2 4 7 9 11 14 15 14 16
6 7 6 6 6 6 6 6 7 8 7 4 5 5 5 6 7 10 20 28 22 13 12 15 19 21 17 14 15 17 20 21 20 17 15 13 11 9 8 8 9 9 9 10 11 12 13 12 12 12 10 8 8 7 6 7 9 10 12 12 10 8 6 5 3 4 7 9 10 12 14 15 14 14
8 7 7 8 7 6 7 6 5 5 7 7 7 8 10 10 4 0 6 17 21 16 10 8 11 12 12 12 11 11 14 19 21 24 26 25 22 18 14 11 10 10 10 8 6 7 11 14 14 12 11 12 14 13 9 8 8 8 9 11 11 9 7 7 6 5 7 9 11 13 14 14 13 13
13 11 9 9 9 9 8 7 6 6 6 7 7 7 5 3 3 8 9 7 11 18 18 13 7 3 4 7 7 6 10 13 12 9 6 5 6 7 8 9 11 13 14 11 8 8 11 12 9 8 7 6 6 5 6 8 11 13 13 13 11 7 3 4 6 9 14 17 15 13 14 15 15 13
16 15 13 10 9 10 11 10 10 8 8 8 8 7 7 3 4 10 11 5 4 11 18 17 11 7 7 7 9 12 16 15 9 0 -5 -1 7 10 11 13 14 14 16 15 13 11 10 8 7 7 6 5 6 7 10 13 14 12 8 4 3 3 4 8 13 17 19 18 15 14 15 16 14 11
15 17 17 14 11 11 12 14 14 12 11 11 10 8 6 5 6 9 11 8 4 6 9 9 5 2 2 3 6 10 7 2 1 -1 2 9 15 15 14 12 8 9 12 11 9 7 5 3 5 6 6 7 9 11 13 13 9 4 1 0 3 7 12 16 18 19 17 14 13 13 14 14 11 9
14 15 17 17 16 14 12 13 15 15 13 12 10 8 6 5 6 9 10 8 5 2 2 4 5 5 5 5 6 5 -0 -3 0 4 6 10 10 8 8 6 2 3 5 4 4 4 1 1 5 8 9 11 12 13 13 9 3 -0 1 6 13 19 21 19 18 17 16 14 15 15 13 10 7 5
13 13 14 16 17 18 16 14 14 14 13 10 8 6 6 6 8 10 8 5 3 4 5 7 8 8 6 4 3 0 -2 -0 4 5 7 10 9 5 4 4 3 5 6 5 6 5 4 7 11 12 11 11 11 10 8 4 3 6 11 16 20 20 17 14 14 15 15 15 15 12 7 5 5 6
11 13 13 14 15 17 17 17 17 16 14 11 10 11 11 10 11 12 9 5 4 7 9 10 9 7 7 6 6 4 3 4 8 10 11 12 11 8 6 7 7 5 3 2 3 4 7 11 12 10 9 9 7 6 6 9 14 19 22 23 21 18 17 17 17 16 14 11 8 6 4 5 7 8
12 12 13 14 14 14 13 11 11 13 15 15 13 12 11 9 9 10 10 9 8 9 10 11 11 11 11 10 10 11 12 13 15 15 13 11 11 10 8 5 2 1 1 4 6 8 10 11 9 7 7 6 6 9 14 18 18 17 17 17 16 17 18 17 14 11 9 7 6 7 8 8 8 9
14 14 15 14 13 13 14 12 7 4 6 11 15 17 16 14 11 9 8 8 9 9 8 8 8 9 10 10 10 11 13 15 16 16 13 11 10 9 7 5 3 2 3 5 6 7 8 9 10 11 12 13 15 19 20 18 14 12 12 13 14 14 12 10 8 7 6 6 8 9 9 9 9 10
17 16 16 16 15 13 12 14 15 10 2 -3 -1 6 12 17 19 19 15 9 5 3 1 2 4 6 8 10 11 11 11 11 13 14 12 10 8 7 6 4 3 3 4 5 7 12 15 17 18 19 19 20 20 19 17 14 13 14 14 14 12 10 8 6 6 7 7 8 9 9 9 10 10 11
19 17 15 14 15 15 13 11 14 19 19 12 1 -4 -3 1 7 14 18 17 14 12 10 11 13 13 13 13 13 12 11 10 10 10 9 8 7 6 7 8 10 13 15 17 18 19 18 18 17 16 15 15 16 18 20 21 19 18 16 13 10 8 8 8 8 9 9 9 9 9 10 11 12 13
21 22 20 15 12 13 15 14 12 13 20 24 21 14 9 7 5 5 8 13 17 19 19 20 20 20 19 18 17 15 15 15 15 15 15 15 15 17 18 20 21 22 21 21 19 17 14 14 14 15 15 17 18 18 19 17 15 13 11 10 9 10 10 10 9 9 9 10 10 11 11 12 13 15
22 22 22 21 16 11 12 16 17 15 14 17 21 22 21 20 18 16 13 13 15 17 18 18 18 18 18 19 19 19 19 19 19 19 20 20 21 21 21 20 19 17 16 15 15 15 16 17 17 17 17 17 17 15 13 11 10 9 7 7 8 9 9 9 8 8 10 12 11 11 13 14 17 19
21 21 21 21 21 17 12 12 17 19 17 17 19 22 24 24 24 22 20 17 15 15 16 17 17 17 16 16 16 16 16 16 16 16 16 16 15 15 15 15 15 15 16 16 17 18 18 18 18 17 17 15 14 12 11 10 9 9 9 9 9 9 9 9 9 10 12 13 12 14 17 18 19 19
Height
5755 5756 5757 5757 5758 5759 5760 5761 5762 5763 5763 5763 5765 5766 5767 5768 5768 5769 5770 5770 5771 5772 5773 5774 5774 5775 5776 5777 5778 5779 5780 5781 5782 5782 5782 5783 5784 5785 5785 5785 5785 5786 5786 5787 5787 5788 5789 5790 5791 5791 5792 5793 5794 5794 5795 5796 5796 5797 5797 5797 5798 5798 5798 5798 5799 5799 5800 5800 5800 5800 5800 5800 5800 5800
5751 5753 5754 5754 5755 5756 5757 5758 5759 5760 5760 5761 5763 5763 5764 5765 5766 5767 5768 5768 5769 5770 5771 5771 5771 5772 5774 5775 5776 5777 5777 5778 5779 5780 5780 5780 5781 5782 5782 5783 5783 5783 5783 5784 5785 5785 5786 5787 5788 5789 5790 5790 5791 5792 5793 5793 5794 5794 5795 5795 5795 5796 5796 5796 5797 5797 5798 5798 5798 5798 5798 5798 5798 5797
5748 5749 5750 5751 5752 5753 5754 5755 5756 5757 5758 5759 5760 5760 5761 5762 5763 5764 5765 5765 5767 5768 5768 5768 5768 5770 5771 5772 5774 5774 5775 5776 5777 5777 5777 5777 5778 5779 5780 5780 5780 5781 5781 5781 5782 5783 5783 5784 5785 5786 5787 5788 5789 5790 5790 5791 5791 5792 5792 5793 5793 5794 5794 5794 5795 5795 5795 5795 5796 5795 5795 5795 5795 5795
5744 5746 5747 5748 5749 5749 5751 5752 5753 5754 5755 5756 5757 5757 5759 5760 5761 5761 5762 5763 5764 5765 5765 5765 5766 5768 5768 5769 5771 5772 5771 5772 5774 5774 5774 5774 5776 5776 5777 5778 5778 5778 5779 5779 5779 5780 5781 5781 5782 5783 5784 5785 5786 5787 5788 5788 5789 5789 5790 5790 5791 5791 5792 5792 5793 5793 5793 5793 5793 5793 5793 5792 5792 5792
5741 5743 5744 5744 5745 5746 5747 5749 5750 5751 5752 5753 5753 5754 5756 5757 5757 5758 5759 5760 5761 5762 5762 5763 5763 5764 5765 5766 5768 5769 5768 5769 5771 5771 5771 5772 5773 5774 5774 5775 5776 5776 5776 5777 5777 5778 5778 5779 5780 5781 5782 5783 5784 5785 5785 5786 5787 5787 5787 5788 5788 5789 5789 5790 5790 5790 5790 5790 5790 5790 5789 5789 5789 5789
5738 5739 5740 5741 5742 5743 5744 5746 5746 5747 5748 5749 5750 5751 5753 5754 5754 5755 5756 5757 5758 5759 5760 5760 5761 5761 5762 5763 5764 5766 5765 5766 5768 5769 5768 5769 5770 5771 5772 5773 5773 5773 5774 5774 5775 5775 5776 5777 5778 5778 5779 5781 5782 5782 5783 5784 5784 5784 5785 5785 5786 5786 5786 5787 5787 5787 5787 5786 5786 5786 5786 5786 5785 5784
5734 5735 5737 5738 5740 5741 5742 5743 5744 5744 5745 5746 5746 5747 5748 5749 5751 5752 5753 5754 5755 5756 5756 5757 5758 5759 5759 5760 5761 5763 5762 5763 5766 5766 5766 5767 5768 5768 5769 5770 5771 5771 5771 5772 5772 5773 5774 5775 5775 5776 5777 5778 5779 5780 5781 5781 5781 5782 5782 5782 5783 5783 5783 5783 5783 5783 5783 5783 5783 5782 5782 5781 5781 5780
5729 5730 5732 5734 5736 5737 5739 5740 5740 5740 5742 5743 5744 5744 5743 5744 5747 5749 5750 5751 5752 5752 5753 5753 5755 5755 5756 5757 5758 5759 5759 5760 5763 5763 5763 5764 5765 5766 5766 5767 5768 5768 5769 5769 5770 5771 5771 5772 5773 5774 5775 5776 5777 5777 5778 5778 5779 5779 5779 5779 5779 5779 5779 5779 5779 5779 5779 5779 5778 5778 5777 5777 5777 5776
5724 5726 5728 5730 5733 5734 5736 5737 5737 5737 5738 5740 5741 5741 5739 5740 5744 5746 5747 5747 5748 5749 5749 5751 5752 5752 5753 5754 5755 5756 5756 5757 5759 5760 5760 5761 5762 5763 5763 5764 5765 5765 5766 5766 5767 5768 5769 5770 5771 5771 5772 5773 5774 5775 5775 5775 5776 5776 5776 5776 5776 5776 5776 5775 5775 5775 5774 5774 5774 5774 5773 5773 5772 5771
5721 5721 5723 5726 5729 5730 5732 5733 5734 5734 5735 5737 5738 5738 5737 5738 5740 5742 5742 5743 5745 5746 5747 5748 5749 5749 5750 5751 5751 5752 5753 5754 5755 5757 5758 5758 5759 5760 5760 5761 5762 5762 5763 5763 5764 5765 5766 5767 5768 5769 5769 5770 5771 5772 5772 5772 5772 5772 5772 5772 5772 5772 5772 5771 5771 5771 5770 5770 5770 5769 5769 5768 5767 5766
5718 5718 5719 5722 5724 5726 5728 5730 5731 5731 5732 5733 5734 5735 5735 5735 5736 5737 5738 5739 5741 5743 5744 5745 5745 5746 5747 5748 5748 5749 5750 5751 5752 5754 5755 5755 5756 5757 5757 5758 5758 5758 5759 5760 5761 5762 5763 5763 5765 5765 5766 5767 5767 5768 5769 5768 5768 5768 5768 5768 5768 5768 5768 5767 5767 5767 5766 5766 5765 5765 5764 5763 5762 5761
5714 5714 5716 5718 5720 5722 5724 5726 5727 5728 5728 5730 5731 5732 5733 5733 5733 5734 5735 5736 5737 5739 5741 5742 5742 5743 5744 5745 5745 5745 5748 5749 5749 5749 5751 5752 5753 5753 5754 5755 5755 5755 5756 5757 5758 5759 5759 5760 5761 5762 5762 5763 5764 5764 5765 5765 5765 5765 5765 5765 5764 5764 5763 5763 5763 5762 5762 5761 5760 5760 5759 5758 5757 5756
5711 5712 5713 5714 5717 5719 5720 5721 5724 5725 5726 5727 5728 5729 5730 5730 5729 5730 5732 5733 5734 5735 5737 5738 5739 5740 5741 5742 5742 5742 5744 5746 5746 5746 5748 5749 5750 5750 5750 5752 5753 5752 5753 5754 5755 5755 5756 5757 5757 5758 5758 5759 5759 5760 5761 5761 5761 5761 5761 5760 5760 5760 5760 5759 5759 5758 5757 5757 5756 5755 5754 5753 5752 5751
5709 5710 5710 5710 5712 5714 5716 5717 5720 5721 5722 5723 5725 5725 5726 5727 5726 5727 5728 5729 5730 5731 5732 5734 5736 5737 5738 5740 5739 5739 5740 5743 5743 5744 5745 5745 5746 5747 5747 5748 5749 5749 5749 5750 5751 5752 5752 5753 5753 5754 5754 5754 5756 5757 5757 5757 5756 5756 5756 5756 5756 5756 5755 5755 5754 5753 5753 5752 5751 5750 5749 5748 5747 5746
5706 5706 5706 5707 5708 5710 5711 5713 5715 5717 5718 5719 5720 5721 5722 5723 5723 5723 5724 5725 5726 5727 5728 5729 5731 5733 5734 5736 5736 5735 5736 5738 5739 5741 5742 5742 5742 5743 5744 5744 5746 5746 5746 5746 5747 5748 5748 5749 5749 5749 5749 5750 5752 5753 5752 5752 5751 5751 5751 5752 5752 5751 5751 5750 5749 5748 5748 5747 5746 5745 5744 5742 5741 5740
5701 5702 5703 5703 5704 5706 5707 5709 5710 5711 5713 5714 5715 5717 5718 5718 5718 5720 5720 5721 5722 5723 5724 5725 5727 5728 5729 5731 5733 5732 5733 5734 5735 5736 5738 5738 5738 5739 5739 5740 5741 5742 5742 5743 5743 5743 5744 5744 5744 5744 5745 5746 5749 5749 5748 5747 5747 5746 5747 5747 5747 5746 5745 5745 5744 5743 5743 5742 5740 5739 5738 5737 5736 5734
5698 5700 5700 5701 5701 5702 5703 5705 5705 5706 5708 5709 5711 5713 5713 5714 5714 5716 5717 5718 5718 5719 5721 5722 5723 5724 5725 5727 5728 5729 5729 5730 5731 5731 5733 5734 5734 5734 5734 5735 5737 5738 5738 5739 5740 5740 5739 5739 5739 5740 5741 5743 5745 5744 5743 5743 5742 5741 5742 5742 5741 5741 5740 5739 5739 5738 5737 5736 5735 5733 5732 5731 5730 5728
5694 5695 5696 5697 5698 5699 5699 5699 5700 5702 5703 5705 5706 5707 5708 5710 5712 5713 5713 5714 5714 5715 5717 5718 5719 5720 5721 5722 5723 5724 5725 5726 5727 5728 5729 5729 5729 5729 5730 5731 5732 5733 5734 5734 5734 5735 5735 5735 5736 5736 5737 5739 5740 5740 5739 5738 5736 5736 5737 5737 5737 5736 5735 5734 5733 5733 5732 5730 5729 5727 5726 5725 5723 5722
5689 5690 5691 5693 5693 5694 5695 5695 5696 5698 5699 5700 5702 5703 5703 5705 5708 5709 5709 5709 5710 5711 5712 5714 5715 5716 5717 5718 5719 5719 5720 5721 5722 5724 5724 5724 5725 5725 5726 5727 5727 5729 5730 5730 5730 5729 5728 5730 5733 5733 5733 5734 5735 5735 5734 5734 5732 5732 5731 5731 5731 5730 5729 5728 5727 5727 5726 5724 5722 5721 5719 5718 5716 5714
5685 5686 5687 5688 5689 5689 5690 5692 5693 5694 5695 5696 5697 5698 5699 5701 5703 5704 5704 5705 5706 5707 5708 5709 5710 5711 5713 5713 5714 5715 5716 5717 5718 5719 5720 5720 5720 5721 5722 5722 5723 5724 5725 5725 5725 5724 5722 5725 5728 5729 5728 5729 5729 5729 5729 5728 5728 5728 5727 5726 5725 5724 5723 5722 5721 5720 5719 5717 5716 5714 5712 5710 5709 5708
5681 5682 5683 5684 5684 5685 5686 5688 5689 5690 5691 5692 5692 5694 5695 5697 5698 5699 5700 5701 5702 5702 5704 5705 5706 5708 5709 5709 5709 5710 5712 5713 5714 5714 5715 5716 5716 5716 5717 5718 5719 5720 5721 5720 5720 5719 5718 5720 5723 5724 5723 5723 5723 5723 5723 5722 5722 5722 5721 5721 5720 5718 5717 5715 5715 5714 5713 5711 5710 5708 5706 5704 5702 5702
5676 5677 5678 5679 5680 5681 5682 5684 5685 5686 5687 5688 5688 5689 5690 5692 5693 5694 5696 5698 5698 5698 5699 5700 5702 5704 5704 5704 5705 5706 5707 5708 5709 5709 5711 5712 5711 5711 5712 5713 5714 5715 5716 5716 5715 5713 5713 5715 5718 5718 5718 5717 5717 5717 5717 5716 5716 5716 5715 5715 5714 5712 5710 5709 5708 5707 5706 5705 5704 5702 5701 5699 5696 5695
5671 5671 5672 5674 5675 5676 5678 5680 5681 5681 5683 5684 5683 5683 5685 5687 5688 5690 5691 5693 5694 5695 5695 5696 5698 5699 5699 5699 5700 5701 5702 5703 5704 5706 5708 5708 5707 5706 5706 5708 5709 5710 5712 5712 5709 5707 5708 5710 5712 5713 5712 5712 5711 5711 5711 5711 5711 5710 5709 5709 5708 5706 5704 5703 5701 5700 5699 5698 5697 5696 5695 5693 5691 5688
5665 5666 5667 5668 5669 5671 5674 5677 5678 5677 5679 5680 5679 5679 5680 5681 5683 5685 5686 5688 5689 5691 5692 5693 5693 5694 5694 5695 5696 5696 5698 5699 5700 5703 5704 5703 5703 5704 5703 5703 5704 5706 5708 5707 5704 5703 5704 5705 5705 5706 5706 5707 5706 5705 5705 5705 5705 5704 5704 5703 5702 5699 5697 5696 5696 5694 5693 5692 5692 5691 5689 5687 5684 5682
5660 5661 5662 5663 5664 5666 5669 5672 5673 5672 5673 5675 5675 5675 5676 5676 5677 5679 5681 5682 5684 5685 5686 5687 5687 5688 5690 5690 5691 5691 5693 5694 5695 5698 5699 5699 5700 5702 5701 5699 5699 5700 5702 5702 5700 5699 5699 5699 5699 5699 5700 5701 5701 5700 5699 5699 5699 5699 5698 5698 5697 5694 5692 5691 5690 5689 5688 5687 5687 5685 5683 5680 5677 5675
5654 5655 5657 5657 5658 5660 5663 5665 5666 5666 5667 5669 5670 5670 5671 5671 5672 5674 5675 5676 5678 5679 5680 5681 5681 5683 5684 5684 5685 5686 5687 5689 5690 5691 5693 5694 5696 5697 5696 5695 5695 5694 5695 5697 5697 5695 5694 5693 5693 5694 5694 5694 5694 5693 5692 5692 5692 5692 5692 5692 5691 5689 5686 5685 5684 5684 5683 5682 5681 5680 5677 5674 5671 5669
5649 5650 5651 5653 5653 5654 5656 5658 5660 5661 5662 5663 5664 5664 5665 5666 5667 5667 5669 5670 5672 5673 5674 5674 5674 5676 5677 5678 5679 5680 5681 5682 5683 5684 5686 5687 5689 5690 5690 5689 5689 5688 5689 5691 5692 5691 5690 5689 5689 5689 5688 5688 5687 5687 5685 5685 5685 5685 5685 5685 5684 5682 5680 5679 5678 5679 5678 5676 5674 5673 5671 5667 5664 5662
5644 5645 5646 5647 5648 5649 5650 5651 5653 5654 5655 5657 5658 5658 5659 5660 5660 5660 5662 5664 5665 5666 5667 5667 5667 5669 5670 5670 5672 5673 5674 5676 5677 5678 5680 5681 5682 5683 5683 5683 5683 5683 5683 5684 5684 5684 5685 5685 5684 5684 5683 5682 5682 5682 5680 5679 5679 5678 5678 5677 5676 5676 5675 5674 5672 5671 5668 5667 5667 5667 5664 5660 5656 5654
5637 5638 5640 5642 5643 5644 5645 5646 5647 5648 5649 5650 5651 5651 5652 5653 5653 5654 5655 5657 5659 5660 5660 5660 5661 5662 5662 5663 5665 5666 5667 5669 5671 5672 5673 5674 5675 5676 5676 5676 5676 5676 5677 5677 5677 5678 5678 5677 5677 5678 5677 5676 5677 5677 5675 5674 5672 5671 5671 5671 5669 5670 5671 5669 5666 5662 5659 5658 5659 5659 5656 5652 5649 5646
5630 5631 5633 5635 5637 5639 5639 5640 5641 5642 5643 5643 5644 5644 5645 5646 5647 5647 5649 5651 5652 5653 5653 5653 5655 5656 5657 5658 5659 5660 5661 5662 5663 5664 5665 5666 5668 5669 5669 5669 5670 5670 5670 5670 5671 5671 5671 5670 5670 5671 5671 5671 5671 5670 5668 5668 5666 5664 5666 5667 5663 5662 5664 5662 5659 5655 5651 5649 5650 5650 5647 5643 5640 5639
5622 5624 5625 5628 5630 5632 5633 5634 5635 5636 5637 5637 5637 5638 5639 5639 5640 5641 5642 5644 5646 5646 5646 5647 5649 5650 5651 5652 5653 5654 5655 5656 5656 5658 5659 5659 5660 5662 5663 5663 5663 5663 5663 5663 5664 5664 5664 5664 5664 5664 5664 5664 5664 5662 5660 5660 5659 5658 5660 5660 5657 5655 5655 5655 5652 5649 5645 5642 5641 5642 5640 5636 5632 5631
5615 5616 5618 5620 5622 5624 5626 5627 5628 5630 5631 5632 5632 5633 5633 5634 5635 5636 5636 5638 5639 5640 5641 5642 5643 5644 5645 5646 5647 5648 5649 5650 5651 5652 5652 5653 5654 5655 5656 5656 5657 5657 5657 5657 5657 5657 5658 5657 5656 5656 5657 5657 5657 5655 5653 5653 5653 5652 5652 5651 5650 5649 5647 5646 5644 5642 5639 5635 5633 5633 5632 5629 5626 5624
5608 5609 5611 5612 5614 5616 5618 5620 5622 5623 5625 5625 5626 5627 5628 5629 5630 5631 5632 5632 5633 5634 5635 5636 5637 5639 5640 5641 5642 5643 5644 5644 5645 5646 5647 5648 5648 5649 5649 5650 5650 5650 5650 5650 5649 5650 5651 5651 5649 5649 5651 5651 5649 5648 5646 5646 5645 5645 5644 5642 5642 5642 5640 5637 5636 5634 5632 5629 5626 5625 5625 5623 5619 5617
5600 5602 5603 5605 5607 5608 5610 5612 5614 5616 5617 5618 5619 5620 5622 5623 5624 5625 5626 5627 5628 5629 5630 5631 5632 5633 5634 5635 5636 5637 5638 5639 5640 5641 5642 5642 5642 5642 5643 5643 5643 5643 5643 5642 5642 5643 5644 5644 5643 5642 5642 5643 5642 5641 5639 5638 5637 5637 5636 5635 5633 5632 5632 5630 5628 5627 5625 5623 5619 5618 5617 5617 5614 5611
5592 5594 5596 5598 5600 5601 5603 5604 5606 5608 5610 5612 5613 5614 5615 5616 5618 5619 5620 5621 5622 5623 5624 5625 5625 5626 5627 5628 5629 5631 5632 5633 5634 5635 5635 5635 5635 5635 5635 5636 5636 5636 5636 5635 5635 5636 5636 5636 5636 5635 5635 5635 5635 5634 5632 5631 5630 5629 5628 5628 5626 5625 5623 5621 5621 5620 5618 5616 5614 5612 5611 5610 5608 5606
5585 5587 5588 5590 5592 5594 5596 5597 5599 5601 5603 5605 5606 5607 5608 5609 5611 5612 5613 5614 5616 5617 5617 5618 5619 5620 5621 5622 5623 5624 5624 5625 5626 5627 5627 5628 5628 5627 5628 5628 5629 5629 5629 5629 5629 5629 5629 5629 5628 5628 5628 5628 5628 5627 5625 5624 5622 5622 5621 5620 5620 5618 5615 5614 5613 5613 5611 5610 5609 5607 5605 5603 5602 5600
5578 5579 5581 5583 5585 5587 5588 5590 5592 5594 5596 5597 5599 5600 5601 5602 5604 5605 5607 5608 5609 5610 5611 5611 5612 5613 5614 5615 5616 5617 5617 5618 5619 5620 5620 5621 5621 5621 5621 5621 5622 5623 5623 5622 5622 5622 5622 5621 5620 5620 5621 5621 5621 5619 5617 5615 5614 5614 5613 5612 5611 5610 5608 5607 5606 5605 5604 5603 5602 5601 5599 5596 5595 5593
5570 5572 5574 5576 5578 5580 5582 5583 5585 5587 5588 5590 5592 5593 5594 5595 5597 5598 5600 5601 5602 5603 5604 5605 5606 5606 5607 5608 5609 5610 5611 5611 5612 5613 5613 5614 5614 5614 5614 5615 5615 5616 5616 5616 5616 5616 5615 5614 5613 5613 5614 5615 5615 5613 5610 5608 5606 5606 5605 5604 5603 5602 5601 5600 5600 5598 5598 5597 5596 5595 5593 5591 5588 5586
5563 5565 5567 5569 5571 5573 5575 5577 5578 5580 5581 5583 5584 5586 5587 5588 5590 5591 5593 5594 5595 5596 5597 5598 5598 5599 5600 5601 5602 5603 5604 5604 5605 5606 5606 5607 5607 5608 5608 5608 5608 5608 5609 5610 5610 5609 5607 5606 5606 5606 5607 5609 5608 5607 5604 5601 5600 5599 5598 5597 5597 5596 5595 5594 5594 5593 5592 5592 5590 5588 5586 5584 5581 5579
5555 5558 5560 5562 5564 5566 5568 5570 5571 5573 5574 5575 5577 5578 5579 5581 5582 5584 5585 5587 5588 5589 5590 5590 5591 5592 5593 5594 5595 5596 5596 5597 5598 5599 5599 5600 5601 5601 5601 5601 5601 5602 5602 5604 5603 5601 5599 5599 5599 5598 5599 5600 5600 5600 5598 5596 5594 5593 5592 5592 5591 5590 5589 5589 5588 5587 5586 5585 5583 5581 5578 5576 5574 5573
5548 5550 5553 5555 5557 5559 5561 5562 5564 5566 5567 5568 5570 5571 5572 5573 5575 5576 5577 5579 5580 5582 5583 5584 5584 5585 5586 5587 5588 5588 5589 5590 5591 5592 5592 5593 5594 5594 5594 5594 5595 5595 5595 5596 5595 5594 5592 5593 5592 5591 5591 5591 5592 5592 5592 5590 5588 5587 5587 5586 5585 5584 5583 5582 5581 5580 5578 5577 5576 5574 5572 5570 5567 5565
5542 5544 5546 5548 5550 5552 5554 5556 5557 5559 5560 5561 5563 5564 5565 5566 5567 5569 5570 5571 5573 5574 5575 5576 5577 5578 5579 5579 5580 5581 5582 5583 5584 5584 5585 5585 5586 5587 5587 5587 5588 5587 5587 5587 5588 5587 5586 5586 5585 5585 5584 5584 5584 5584 5585 5584 5582 5581 5580 5580 5579 5578 5577 5576 5574 5573 5572 5570 5568 5567 5565 5563 5560 5558
5536 5538 5540 5542 5544 5545 5547 5549 5551 5552 5553 5555 5556 5557 5558 5559 5561 5562 5563 5564 5565 5567 5568 5569 5569 5570 5571 5572 5573 5574 5575 5576 5576 5577 5577 5578 5578 5579 5579 5580 5580 5580 5579 5580 5581 5580 5580 5579 5579 5578 5578 5578 5578 5578 5578 5578 5577 5576 5575 5574 5574 5573 5571 5570 5569 5567 5566 5564 5562 5560 5558 5556 5554 5551
5531 5532 5534 5536 5537 5539 5541 5543 5544 5546 5547 5548 5550 5551 5552 5553 5554 5555 5557 5558 5559 5560 5561 5561 5562 5563 5564 5565 5566 5567 5568 5569 5569 5570 5570 5571 5572 5572 5572 5573 5574 5573 5572 5573 5573 5574 5573 5573 5573 5572 5572 5572 5572 5572 5572 5572 5572 5571 5570 5569 5569 5567 5566 5564 5562 5561 5559 5556 5554 5553 5551 5549 5548 5546
5526 5528 5529 5530 5532 5534 5535 5537 5538 5540 5541 5542 5544 5545 5546 5547 5548 5549 5550 5551 5552 5553 5554 5555 5556 5557 5558 5559 5560 5561 5561 5562 5563 5563 5564 5564 5565 5565 5566 5566 5567 5567 5567 5566 5567 5568 5568 5567 5567 5567 5567 5567 5567 5567 5567 5566 5566 5565 5565 5563 5562 5561 5560 5557 5556 5554 5552 5550 5548 5547 5545 5544 5542 5540